EW2807 Weather Reports


Display with metric or nautical units.
time (UTC)temp
F
wind
direction
speed
MPH
gust
MPH
rain 1hr
in
rain 24hr
in
rain mn
in
humidity
%
barometer
mb
20260509011433 51 328 0.0 0.0 0.00 0.00 0.00 83 1004.4
20260509010256 52 328 0.0 0.0 0.00 0.00 0.00 78 1004.3
20260509005739 52 328 0.0 0.0 0.00 0.00 0.00 79 1004.3
20260509005221 52 328 0.0 0.0 0.00 0.00 0.00 77 1004.3
20260509004702 52 328 0.0 0.0 0.00 0.00 0.00 71 1004.2
20260509004155 54 328 0.0 0.0 0.00 0.00 0.00 69 1004.2
20260509003636 55 328 0.0 0.0 0.00 0.00 0.00 67 1004.2
20260509003133 56 328 0.0 0.0 0.00 0.00 0.00 67 1004.2
20260509002638 56 328 0.0 0.0 0.00 0.00 0.00 66 1004.1
20260509002126 57 328 0.0 0.0 0.00 0.00 0.00 65 1004.1
20260509001607 57 328 0.0 0.0 0.00 0.00 0.00 64 1004.2
20260509000440 59 316 0.0 1.0 0.00 0.00 0.00 61 1004.1
20260508235935 59 319 0.0 0.0 0.00 0.00 0.00 61 1004.1
20260508234133 60 325 0.0 2.0 0.00 0.00 0.00 58 1004.2
20260508233616 60 314 0.0 0.0 0.00 0.00 0.00 58 1004.2
20260508233122 60 325 0.0 3.0 0.00 0.00 0.00 58 1004.1
20260508232618 60 317 0.0 2.0 0.00 0.00 0.00 58 1004.1
20260508231429 60 328 0.0 0.0 0.00 0.00 0.00 59 1004.3
20260508230925 60 328 0.0 0.0 0.00 0.00 0.00 60 1004.3
20260508230409 59 328 0.0 3.0 0.00 0.00 0.00 58 1004.2
20260508225851 60 324 0.0 2.0 0.00 0.00 0.00 58 1004.3
20260508225354 60 319 0.0 0.0 0.00 0.00 0.00 57 1004.3
20260508224902 60 319 0.0 1.0 0.00 0.00 0.00 57 1004.3
20260508224402 60 253 0.0 1.0 0.00 0.00 0.00 58 1004.3
20260508223901 60 62 0.0 0.0 0.00 0.00 0.00 58 1004.3
20260508223406 59 62 0.0 4.0 0.00 0.00 0.00 57 1004.4
20260508222856 60 62 0.0 2.0 0.00 0.00 0.00 57 1004.5
20260508221745 61 60 0.0 4.0 0.00 0.00 0.00 58 1004.5
20260508221240 61 61 0.0 4.0 0.00 0.00 0.00 55 1004.6
20260508220743 61 60 0.0 3.0 0.00 0.00 0.00 56 1004.7
20260508220233 61 61 0.0 4.0 0.00 0.00 0.00 54 1004.7
20260508215723 60 61 0.0 4.0 0.00 0.00 0.00 58 1004.8
20260508215223 60 324 0.0 2.0 0.00 0.00 0.00 57 1004.8
20260508214727 60 328 0.0 5.0 0.00 0.00 0.00 57 1004.9
20260508214233 60 328 0.0 4.0 0.00 0.00 0.00 57 1004.9
20260508213730 59 318 0.0 1.0 0.00 0.00 0.00 59 1004.9
20260508213227 59 319 0.0 7.0 0.00 0.00 0.00 57 1005.0
20260508212730 60 328 0.0 5.0 0.00 0.00 0.00 55 1005.0
20260508212232 60 319 0.0 4.0 0.00 0.00 0.00 58 1004.9
20260508211717 60 329 0.0 10.0 0.00 0.00 0.00 59 1004.9
20260508211216 59 328 0.0 10.0 0.00 0.00 0.00 56 1004.9
20260508210104 61 328 1.0 10.0 0.00 0.00 0.00 53 1005.1
20260508205558 62 329 1.0 7.0 0.00 0.00 0.00 53 1005.0
20260508205056 61 329 1.0 7.0 0.00 0.00 0.00 53 1005.1
20260508204556 61 319 1.0 7.0 0.00 0.00 0.00 47 1005.3
20260508204037 63 82 1.0 7.0 0.00 0.00 0.00 44 1005.3
20260508203531 64 78 1.0 6.0 0.00 0.00 0.00 43 1005.4
20260508203037 64 60 1.0 6.0 0.00 0.00 0.00 43 1005.4
20260508202520 64 69 1.0 6.0 0.00 0.00 0.00 34 1005.5
20260508202026 64 60 0.0 7.0 0.00 0.00 0.00 32 1005.6
20260508201511 64 127 0.0 7.0 0.00 0.00 0.00 35 1005.6
20260508201011 63 95 1.0 6.0 0.00 0.00 0.00 34 1005.6
20260508200455 62 61 1.0 6.0 0.00 0.00 0.00 37 1005.8
20260508195947 62 328 0.0 4.0 0.00 0.00 0.00 35 1005.9
20260508195441 62 241 0.0 4.0 0.00 0.00 0.00 34 1006.0
20260508194940 62 257 1.0 6.0 0.00 0.00 0.00 35 1006.1
20260508193812 62 61 1.0 7.0 0.00 0.00 0.00 36 1006.4
20260508192055 62 328 1.0 5.0 0.00 0.00 0.00 37 1006.4
20260508191556 62 61 1.0 5.0 0.00 0.00 0.00 34 1006.5
20260508191104 61 329 1.0 8.0 0.00 0.00 0.00 37 1006.5
20260508190603 62 329 1.0 8.0 0.00 0.00 0.00 36 1006.7
20260508190057 62 329 1.0 8.0 0.00 0.00 0.00 36 1006.8
20260508185555 62 130 1.0 8.0 0.00 0.00 0.00 34 1006.7
20260508185049 62 61 0.0 0.0 0.00 0.00 0.00 36 1006.9
20260508184541 61 142 0.0 6.0 0.00 0.00 0.00 34 1006.9
20260508184028 61 328 0.0 6.0 0.00 0.00 0.00 34 1007.0
20260508182903 61 328 0.0 6.0 0.00 0.00 0.00 36 1007.1
20260508182359 61 100 1.0 6.0 0.00 0.00 0.00 35 1007.1
20260508175333 60 169 2.0 10.0 0.00 0.00 0.00 37 1007.6
20260508174836 60 63 1.0 10.0 0.00 0.00 0.00 34 1007.8
20260508174338 60 328 0.0 3.0 0.00 0.00 0.00 42 1007.8
20260508173843 60 328 1.0 7.0 0.00 0.00 0.00 37 1007.8
20260508172705 60 183 2.0 7.0 0.00 0.00 0.00 37 1008.1
20260508172210 60 62 2.0 7.0 0.00 0.00 0.00 38 1008.1
20260508171655 60 63 1.0 8.0 0.00 0.00 0.00 36 1008.2
20260508170541 60 75 1.0 8.0 0.00 0.00 0.00 38 1008.3
20260508170048 60 152 1.0 8.0 0.00 0.00 0.00 38 1008.3
20260508165540 60 62 0.0 5.0 0.00 0.00 0.00 34 1008.4
20260508165032 60 103 0.0 0.0 0.00 0.00 0.00 37 1008.4
20260508164514 59 62 1.0 6.0 0.00 0.00 0.00 36 1008.6
20260508163340 59 67 1.0 5.0 0.00 0.00 0.00 37 1008.9
20260508162837 58 62 0.0 6.0 0.00 0.00 0.00 36 1008.8
20260508162333 59 62 0.0 6.0 0.00 0.00 0.00 35 1008.9
20260508161826 58 62 0.0 6.0 0.00 0.00 0.00 37 1008.8
20260508161320 58 286 1.0 6.0 0.00 0.00 0.00 36 1008.9
20260508160805 58 62 0.0 5.0 0.00 0.00 0.00 37 1009.0
20260508160300 59 62 0.0 5.0 0.00 0.00 0.00 37 1009.0
20260508155758 59 138 0.0 5.0 0.00 0.00 0.00 41 1008.9
20260508155239 58 326 0.0 3.0 0.00 0.00 0.00 41 1009.0
20260508153515 57 76 0.0 0.0 0.00 0.00 0.00 41 1009.0
20260508153016 57 62 0.0 2.0 0.00 0.00 0.00 43 1009.1
20260508152501 57 61 0.0 2.0 0.00 0.00 0.00 42 1009.2
20260508151946 57 175 0.0 4.0 0.00 0.00 0.00 46 1009.2
20260508150824 56 151 0.0 5.0 0.00 0.00 0.00 45 1009.4
20260508145700 56 68 0.0 4.0 0.00 0.00 0.00 46 1009.4
20260508144521 56 176 0.0 0.0 0.00 0.00 0.00 51 1009.5
20260508144023 55 226 0.0 2.0 0.00 0.00 0.00 48 1009.5
20260508143506 54 168 0.0 3.0 0.00 0.00 0.00 49 1009.5
20260508142952 54 288 0.0 0.0 0.00 0.00 0.00 50 1009.6
20260508142440 54 62 0.0 3.0 0.00 0.00 0.00 51 1009.7
20260508141944 54 150 0.0 2.0 0.00 0.00 0.00 54 1009.7
20260508141449 54 126 0.0 5.0 0.00 0.00 0.00 52 1009.7
20260508140951 53 150 0.0 1.0 0.00 0.00 0.00 51 1009.8
20260508135828 53 149 0.0 4.0 0.00 0.00 0.00 52 1009.8
20260508135329 53 126 0.0 4.0 0.00 0.00 0.00 53 1009.8
20260508134149 52 218 0.0 1.0 0.00 0.00 0.00 58 1009.9
20260508133643 52 61 0.0 3.0 0.00 0.00 0.00 56 1009.9
20260508133127 51 165 0.0 2.0 0.00 0.00 0.00 58 1009.8
20260508132002 50 61 0.0 2.0 0.00 0.00 0.00 60 1009.9
20260508131502 50 219 0.0 1.0 0.00 0.00 0.00 61 1009.9
20260508131012 49 136 0.0 1.0 0.00 0.00 0.00 66 1009.8
20260508130508 49 171 0.0 1.0 0.00 0.00 0.00 69 1009.9
20260508125950 48 269 0.0 0.0 0.00 0.00 0.00 71 1009.9
20260508125451 47 328 0.0 0.0 0.00 0.00 0.00 75 1009.9
20260508124957 46 328 0.0 1.0 0.00 0.00 0.00 76 1009.9
20260508124454 46 329 0.0 0.0 0.00 0.00 0.00 79 1009.9
20260508123942 45 311 0.0 1.0 0.00 0.00 0.00 81 1009.8
20260508123452 44 328 0.0 0.0 0.00 0.00 0.00 83 1009.9
20260508122936 43 309 0.0 1.0 0.00 0.00 0.00 85 1009.9
20260508122440 43 328 0.0 0.0 0.00 0.00 0.00 86 1009.8
20260508121923 42 328 0.0 0.0 0.00 0.00 0.00 88 1009.7
20260508121418 42 328 0.0 0.0 0.00 0.00 0.00 89 1009.6
20260508115611 38 323 0.0 1.0 0.00 0.00 0.00 97 1009.4
20260508115105 37 172 0.0 0.0 0.00 0.00 0.00 97 1009.4
20260508114550 37 172 0.0 0.0 0.00 0.00 0.00 97 1009.3
20260508114045 36 172 0.0 0.0 0.00 0.00 0.00 97 1009.3
20260508113538 36 172 0.0 0.0 0.00 0.00 0.00 97 1009.3
20260508113021 35 172 0.0 0.0 0.00 0.00 0.00 96 1009.2
20260508112514 34 172 0.0 0.0 0.00 0.00 0.00 96 1009.2
20260508112004 34 172 0.0 0.0 0.00 0.00 0.00 96 1009.2
20260508111500 33 172 0.0 0.0 0.00 0.00 0.00 95 1009.2
20260508105706 32 172 0.0 0.0 0.00 0.00 0.00 94 1009.1
20260508105152 32 172 0.0 0.0 0.00 0.00 0.00 94 1009.1
20260508104644 32 172 0.0 0.0 0.00 0.00 0.00 94 1009.1
20260508104139 32 172 0.0 0.0 0.00 0.00 0.00 94 1009.0
20260508103642 31 172 0.0 0.0 0.00 0.00 0.00 94 1009.1
20260508103129 31 172 0.0 0.0 0.00 0.00 0.00 94 1009.1
20260508102638 31 172 0.0 0.0 0.00 0.00 0.00 94 1009.2
20260508102132 31 172 0.0 0.0 0.00 0.00 0.00 94 1009.1
20260508101026 31 172 0.0 0.0 0.00 0.00 0.00 93 1009.1
20260508100518 31 172 0.0 0.0 0.00 0.00 0.00 93 1009.1
20260508095402 32 172 0.0 0.0 0.00 0.00 0.00 93 1009.1
20260508094900 32 172 0.0 0.0 0.00 0.00 0.00 93 1009.1
20260508094349 32 172 0.0 0.0 0.00 0.00 0.00 93 1009.2
20260508093845 32 172 0.0 0.0 0.00 0.00 0.00 92 1009.2
20260508093355 33 172 0.0 0.0 0.00 0.00 0.00 92 1009.2
20260508092850 33 172 0.0 0.0 0.00 0.00 0.00 92 1009.2
20260508092354 33 172 0.0 0.0 0.00 0.00 0.00 92 1009.2
20260508090623 34 172 0.0 0.0 0.00 0.00 0.00 91 1009.4
20260508090115 34 172 0.0 0.0 0.00 0.00 0.00 91 1009.4
20260508085622 35 172 0.0 0.0 0.00 0.00 0.00 91 1009.4
20260508085129 35 172 0.0 0.0 0.00 0.00 0.00 91 1009.4
20260508084622 36 172 0.0 0.0 0.00 0.00 0.00 91 1009.4
20260508084125 36 172 0.0 0.0 0.00 0.00 0.00 91 1009.4
20260508083622 37 172 0.0 0.0 0.00 0.00 0.00 91 1009.3
20260508083118 37 172 0.0 0.0 0.00 0.00 0.00 91 1009.2
20260508082602 37 172 0.0 0.0 0.00 0.00 0.00 92 1009.1
20260508082102 38 172 0.0 0.0 0.00 0.00 0.00 92 1009.2
20260508081553 37 172 0.0 0.0 0.00 0.00 0.00 91 1009.4
20260508080424 38 172 0.0 0.0 0.00 0.00 0.00 90 1009.5
20260508075919 38 172 0.0 0.0 0.00 0.00 0.00 90 1009.4
20260508074158 39 153 0.0 0.0 0.00 0.00 0.00 90 1009.1
20260508073640 39 156 0.0 0.0 0.00 0.00 0.00 90 1009.0
20260508073120 39 156 0.0 0.0 0.00 0.00 0.00 90 1009.0
20260508072621 39 156 0.0 0.0 0.00 0.00 0.00 90 1009.1
20260508072110 39 156 0.0 0.0 0.00 0.00 0.00 88 1009.3
20260508070940 39 156 0.0 0.0 0.00 0.00 0.00 89 1009.1
20260508070436 39 156 0.0 0.0 0.00 0.00 0.00 89 1009.1
20260508065918 39 156 0.0 0.0 0.00 0.00 0.00 89 1009.6
20260508065401 39 156 0.0 0.0 0.00 0.00 0.00 88 1009.6
20260508064846 39 156 0.0 0.0 0.00 0.00 0.00 88 1009.4
20260508064354 40 156 0.0 0.0 0.00 0.00 0.00 87 1009.5
20260508063842 40 156 0.0 0.0 0.00 0.00 0.00 87 1009.4
20260508063338 40 156 0.0 0.0 0.00 0.00 0.00 86 1009.5
20260508062824 40 156 0.0 0.0 0.00 0.00 0.00 85 1009.5
20260508061653 41 156 1.0 3.0 0.00 0.00 0.00 82 1009.9
20260508061150 41 168 0.0 3.0 0.00 0.00 0.00 82 1009.3
20260508060647 41 62 0.0 2.0 0.00 0.00 0.00 82 1009.9
20260508060143 41 158 0.0 0.0 0.00 0.00 0.00 83 1010.0
20260508055645 41 158 0.0 0.0 0.00 0.00 0.00 81 1009.7
20260508055126 41 158 0.0 0.0 0.00 0.00 0.00 80 1009.5
20260508054609 41 158 0.0 0.0 0.00 0.00 0.00 80 1009.6
20260508053457 41 158 0.0 0.0 0.00 0.00 0.00 79 1009.8
20260508051654 41 158 0.0 0.0 0.00 0.00 0.00 79 1009.9
20260508051135 41 158 0.0 0.0 0.00 0.00 0.00 80 1009.8
20260508050634 41 158 0.0 0.0 0.00 0.00 0.00 81 1009.9
20260508050117 41 158 0.0 0.0 0.00 0.00 0.00 83 1010.0
20260508045613 40 158 0.0 0.0 0.00 0.00 0.00 84 1010.0
20260508044450 39 158 0.0 0.0 0.00 0.00 0.00 85 1010.1
20260508043932 39 158 0.0 0.0 0.00 0.00 0.00 83 1010.1
20260508043435 39 158 0.0 0.0 0.00 0.00 0.00 83 1009.9
20260508042941 40 158 0.0 0.0 0.00 0.00 0.00 83 1009.8
20260508041809 40 158 0.0 0.0 0.00 0.00 0.00 84 1009.6
20260508041303 40 158 0.0 0.0 0.00 0.00 0.00 84 1009.5
20260508040745 40 158 0.0 0.0 0.00 0.00 0.00 85 1009.6
20260508040230 40 158 0.0 0.0 0.00 0.00 0.00 84 1009.5
20260508035718 40 158 0.0 0.0 0.00 0.00 0.00 84 1009.5
20260508035212 39 158 0.0 0.0 0.00 0.00 0.00 83 1009.5
20260508034656 40 158 0.0 0.0 0.00 0.00 0.00 82 1009.4
20260508034154 40 158 0.0 0.0 0.00 0.00 0.00 82 1009.2
20260508033658 40 158 0.0 0.0 0.00 0.00 0.00 81 1009.3
20260508033203 40 158 0.0 0.0 0.00 0.00 0.00 81 1009.4
20260508032657 40 158 0.0 0.0 0.00 0.00 0.00 82 1009.5
20260508032207 40 158 0.0 0.0 0.00 0.00 0.00 81 1009.4
20260508031711 40 158 0.0 0.0 0.00 0.00 0.00 81 1009.6
20260508031218 40 158 0.0 0.0 0.00 0.00 0.00 79 1009.7
20260508030726 40 158 0.0 0.0 0.00 0.00 0.00 78 1009.8
20260508030228 40 158 0.0 0.0 0.00 0.00 0.00 76 1009.7
20260508025059 41 158 0.0 0.0 0.00 0.00 0.00 73 1009.7
20260508024552 42 158 0.0 0.0 0.00 0.00 0.00 71 1009.7
20260508024034 43 158 0.0 0.0 0.00 0.00 0.00 70 1009.6
20260508023533 43 158 0.0 0.0 0.00 0.00 0.00 69 1009.6
20260508023035 44 158 0.0 0.0 0.00 0.00 0.00 67 1009.7
20260508022538 44 158 0.0 0.0 0.00 0.00 0.00 65 1009.7
20260508022027 44 158 0.0 0.0 0.00 0.00 0.00 63 1009.6
20260508021522 45 158 0.0 0.0 0.00 0.00 0.00 61 1009.6
20260508021012 46 158 0.0 0.0 0.00 0.00 0.00 59 1009.6
20260508020511 47 158 0.0 0.0 0.00 0.00 0.00 58 1009.7
20260508020020 47 153 0.0 0.0 0.00 0.00 0.00 57 1009.7
20260508015512 47 146 0.0 3.0 0.00 0.00 0.00 57 1009.6
20260508014956 47 153 0.0 1.0 0.00 0.00 0.00 56 1009.5
20260508014445 47 156 0.0 1.0 0.00 0.00 0.00 56 1009.5
20260508012706 47 129 0.0 1.0 0.00 0.00 0.00 54 1009.3